Regional Weather Roundup
Issued by NWS

Home | Current Version | Previous Version | Graphics & Text | Print | Product List | Glossary On
Versions: 1 2 3 4 5 6 7 8 9 10 11 12 13 14 15 16 17 18 19 20 21 22 23 24 25 26 27 28 29 30 31 32 33 34 35 36 37 38 39 40 41 42 43 44 45 46 47 48 49 50
000
ASUS43 KIND 270709
RWRIN

WEATHER ROUNDUP FOR INDIANA
NATIONAL WEATHER SERVICE INDIANAPOLIS IN
300 AM EDT WED MAY 27 2015

NOTE: "FAIR" INDICATES FEW OR NO CLOUDS BELOW 12,000 FEET WITH NO
SIGNIFICANT WEATHER AND/OR OBSTRUCTIONS TO VISIBILITY.

* - STATION DOES NOT REPORT WEATHER SUCH AS PRECIPITATION OR FOG.

+ - STATION NOT QUALITY CONTROLLED BY THE NATIONAL WEATHER SERVICE.
    USE DATA WITH CAUTION...ESPECIALLY DEWPOINT AND RELATIVE
    HUMIDITY OBSERVATIONS.

INZ001>003-010>013-019-020-270800-
NORTHWEST INDIANA

CITY           SKY/WX    TMP DP  RH WIND       PRES   REMARKS
GARY /AIRPORT/ MOCLDY    72  61  68 SW10G22   29.87S
KNOX *+        MOCLDY    64  59  82 SW15      29.91S
LA PORTE +     MOCLDY    69  61  76 SW13      29.91S
MICHIGAN CITY+ CLOUDY    68  57  68 S13G20    29.88F
MONTICELLO +   CLEAR     66  61  84 S12G18    29.94S
RENSSELAER +   PTCLDY    66  63  88 SW14G20   29.92S
VALPARAISO     CLOUDY    68  59  73 SW16G23   29.90S

$$

LMZ046-743>745-270800-
SOUTHERN LAKE MICHIGAN

STATION/POSITION TIME  TEMP    WIND        PRES    WAVE
                       AIR SEA DIR/SP/G            HT
                 (UTC) (F)     (DEG/KT/KT) (MB)    (FT)
BURNS HARBOR     0700   68     200/ 19/ 22 1011.9S
MICHIGAN CITY    0700   69     170/ 18/ 22   N/A
5NW MICH CITY    0700   64 52  210/ 16/ 25   N/A     2

$$

INZ004-005-014>016-021>024-270800-
NORTH CENTRAL INDIANA

CITY           SKY/WX    TMP DP  RH WIND       PRES   REMARKS
GOSHEN         CLEAR     66  60  81 SW13      29.92S
LOGANSPORT +   CLEAR     66  55  68 SW13G20   29.96S
PERU/GRISSOM   CLEAR     66  60  80 SW14      29.95S
ROCHESTER +    CLEAR     68  61  77 SW10      29.95S
SOUTH BEND     CLEAR     68  60  75 SW14      29.90S
WARSAW +       CLEAR     66  59  77 SW7       29.94S

$$

INZ006>009-017-018-025>027-270800-
NORTHEAST INDIANA

CITY           SKY/WX    TMP DP  RH WIND       PRES   REMARKS
ANGOLA *+      CLEAR     64  61  88 SW7       29.94S
AUBURN +       PTCLDY    64  59  82 S5        29.96S
FORT WAYNE     PTCLDY    65  59  81 SW12      29.97R
HUNTINGTON +   CLEAR     66  59  78 SW9       29.97S

$$

INZ028-029-035-036-043>045-051>053-270800-
WEST CENTRAL INDIANA

CITY           SKY/WX    TMP DP  RH WIND       PRES   REMARKS
CRAWFORDSVL +  CLEAR     64  56  76 S10       29.98F
GREENCASTLE +  CLEAR     64  55  72 S5        30.01S
LAFAYETTE      CLEAR     66  60  81 S6        29.94F
TERRE HAUTE    CLEAR     67  61  81 SW9       29.99F

$$

INZ030>032-037>040-046>048-054>057-064-065-270800-
CENTRAL INDIANA

CITY           SKY/WX    TMP DP  RH WIND       PRES   REMARKS
CP ATTERBURY + PTCLDY    63  59  88 S3        30.02F
FISHERS *+     PTCLDY    64  61  88 SW7       30.00S
FRANKFORT +    CLEAR     66  60  81 S8        29.99F
GREENWOOD *+   PTCLDY    64  57  77 CALM      30.02S
INDIANAPOLIS   CLEAR     65  59  81 SW10      29.99S
-EAGLE CREEK   PTCLDY    66  60  81 SW7       29.99F
KOKOMO *+      CLEAR     66  59  77 SW14G21   29.97S
MARION +       CLEAR     65  58  78 SW9       29.99S
MT COMFORT *+  PTCLDY    64  61  88 S7        30.01F
SHELBYVILLE    PTCLDY    67  60  78 S7        30.01F
ZIONSVILLE +   PTCLDY    67  59  75 SW10      30.00S

$$

INZ033-034-041-042-049-050-058-059-270800-
EAST CENTRAL INDIANA

CITY           SKY/WX    TMP DP  RH WIND       PRES   REMARKS
MUNCIE         PTCLDY    67  60  78 SW9       30.00S

$$

INZ060-061-067>069-081>083-085>088-270800-
SOUTHWEST INDIANA

CITY           SKY/WX    TMP DP  RH WIND       PRES   REMARKS
EVANSVILLE     CLEAR     66  60  81 CALM      30.03F
HUNTINGBURG *+ CLEAR     63  57  82 S6        30.04F
WASHINGTON +   CLEAR     67  60  80 SW9       30.01F

$$

INZ062-063-066-070>080-084-089>092-270800-
SOUTH CENTRAL AND SOUTHEAST INDIANA

CITY           SKY/WX    TMP DP  RH WIND       PRES   REMARKS
BLOOMINGTON    CLEAR     66  61  84 SW8       30.02S
MADISON *+     PTCLDY    66  63  88 S6        30.07F
NORTH VERNON + PTCLDY    66  66 100 S3        30.05F
SEYMOUR +      PTCLDY    68  63  83 S7        30.03F

$$



USA.gov is the U.S. government's official web portal to all federal, state and local government web resources and services.